DW2640 Weather Reports


Display with metric or nautical units.
time (UTC)temp
F
wind
direction
speed
MPH
gust
MPH
rain 1hr
in
rain 24hr
in
rain mn
in
humidity
%
barometer
mb
20260902053009 81 180 3.0 5.0 0.00 0.00 0.00 56 1010.9
20260902051509 81 163 3.0 6.0 0.00 0.00 0.00 55 1011.0
20260902050008 82 167 3.0 7.0 0.00 0.00 0.00 54 1011.0
20260902044503 82 150 4.0 8.0 0.00 0.00 0.00 53 1011.1
20260902043003 82 161 3.0 6.0 0.00 0.00 0.00 52 1011.2
20260902041502 82 206 5.0 9.0 0.00 0.00 0.00 51 1011.1
20260902040001 83 182 4.0 8.0 0.00 0.00 0.00 50 1011.1
20260902034501 83 179 3.0 6.0 0.00 0.00 0.00 49 1011.0
20260902033112 83 168 4.0 7.0 0.00 0.00 0.00 48 1011.1
20260902031602 84 135 3.0 5.0 0.00 0.00 0.00 47 1010.8
20260902030059 84 162 1.0 4.0 0.00 0.00 0.00 45 1010.7
20260902024608 85 158 1.0 5.0 0.00 0.00 0.00 44 1010.6
20260902023059 86 155 2.0 6.0 0.00 0.00 0.00 43 1010.4
20260902021558 86 159 3.0 5.0 0.00 0.00 0.00 42 1010.3
20260902020121 87 159 3.0 7.0 0.00 0.00 0.00 41 1010.1
20260902014601 87 171 3.0 6.0 0.00 0.00 0.00 40 1009.9
20260902013056 88 161 5.0 7.0 0.00 0.00 0.00 39 1009.8
20260902011556 90 143 4.0 6.0 0.00 0.00 0.00 38 1009.7
20260902010055 91 170 3.0 7.0 0.00 0.00 0.00 37 1009.6
20260902004554 92 171 4.0 8.0 0.00 0.00 0.00 35 1009.6
20260902003059 94 157 4.0 10.0 0.00 0.00 0.00 33 1009.7
20260902001552 95 161 5.0 11.0 0.00 0.00 0.00 33 1009.7
20260902000051 96 191 5.0 12.0 0.00 0.00 0.00 32 1009.9
20260901234603 96 167 9.0 14.0 0.00 0.00 0.00 30 1009.8
20260901233054 97 201 4.0 11.0 0.00 0.00 0.00 30 1009.8
20260901231547 98 202 8.0 18.0 0.00 0.00 0.00 29 1009.8
20260901230052 98 175 6.0 14.0 0.00 0.00 0.00 30 1009.9
20260901224551 98 179 7.0 16.0 0.00 0.00 0.00 29 1009.8
20260901223053 98 194 9.0 19.0 0.00 0.00 0.00 29 1009.8
20260901221607 99 186 8.0 14.0 0.00 0.00 0.00 29 1009.9
20260901220043 99 165 8.0 18.0 0.00 0.00 0.00 29 1010.1
20260901214541 99 209 9.0 19.0 0.00 0.00 0.00 27 1010.2
20260901213040 99 198 7.0 16.0 0.00 0.00 0.00 28 1010.4
20260901211540 99 158 7.0 19.0 0.00 0.00 0.00 27 1010.5
20260901210038 99 204 4.0 18.0 0.00 0.00 0.00 27 1010.7
20260901204537 99 151 9.0 18.0 0.00 0.00 0.00 27 1010.9
20260901203047 99 190 9.0 18.0 0.00 0.00 0.00 27 1011.0
20260901201543 99 186 6.0 16.0 0.00 0.00 0.00 28 1011.2
20260901200032 99 237 6.0 20.0 0.00 0.00 0.00 28 1011.4
20260901194529 98 181 7.0 21.0 0.00 0.00 0.00 28 1011.5
20260901193025 99 182 8.0 18.0 0.00 0.00 0.00 29 1011.7
20260901191524 98 288 9.0 13.0 0.00 0.00 0.00 31 1012.0
20260901190023 98 290 8.0 22.0 0.00 0.00 0.00 29 1012.1
20260901184521 96 212 12.0 24.0 0.00 0.00 0.00 31 1011.9
20260901183020 97 182 9.0 18.0 0.00 0.00 0.00 31 1012.2
20260901181522 96 205 9.0 21.0 0.00 0.00 0.00 33 1012.2
20260901180020 97 202 9.0 20.0 0.00 0.00 0.00 32 1012.3
20260901174517 96 272 9.0 20.0 0.00 0.00 0.00 34 1012.6
20260901173016 96 209 10.0 15.0 0.00 0.00 0.00 35 1012.8
20260901171514 95 281 6.0 16.0 0.00 0.00 0.00 37 1012.8
20260901170015 95 277 10.0 19.0 0.00 0.00 0.00 37 1013.0
20260901164511 94 244 11.0 18.0 0.00 0.00 0.00 37 1013.1
20260901163009 94 241 10.0 22.0 0.00 0.00 0.00 38 1013.2
20260901161518 93 238 7.0 18.0 0.00 0.00 0.00 39 1013.3
20260901160006 93 213 9.0 16.0 0.00 0.00 0.00 41 1013.3
20260901154503 92 222 9.0 18.0 0.00 0.00 0.00 41 1013.2
20260901153100 91 192 4.0 13.0 0.00 0.00 0.00 43 1013.3
20260901151556 90 192 9.0 15.0 0.00 0.00 0.00 43 1013.3
20260901150055 88 193 8.0 14.0 0.00 0.00 0.00 45 1013.4
20260901144549 87 217 6.0 12.0 0.00 0.00 0.00 48 1013.6
20260901143045 85 192 4.0 9.0 0.00 0.00 0.00 51 1013.7
20260901141541 83 254 6.0 10.0 0.00 0.00 0.00 53 1013.7
20260901140039 82 209 4.0 8.0 0.00 0.00 0.00 53 1013.8
20260901134556 80 161 3.0 7.0 0.00 0.00 0.00 56 1013.7
20260901133036 79 165 2.0 7.0 0.00 0.00 0.00 58 1013.7
20260901131536 78 202 2.0 6.0 0.00 0.00 0.00 60 1014.0
20260901130035 76 209 0.0 5.0 0.00 0.00 0.00 62 1013.9
20260901124536 74 177 1.0 5.0 0.00 0.00 0.00 63 1013.8
20260901123032 73 177 1.0 5.0 0.00 0.00 0.00 64 1013.4
20260901121530 73 180 0.0 2.0 0.00 0.00 0.00 65 1013.2
20260901120031 72 167 0.0 2.0 0.00 0.00 0.00 66 1013.0
20260901114533 72 170 0.0 2.0 0.00 0.00 0.00 67 1012.9
20260901113044 72 170 0.0 2.0 0.00 0.00 0.00 66 1013.1
20260901111526 73 170 0.0 2.0 0.00 0.00 0.00 66 1012.9
20260901110023 73 169 0.0 2.0 0.00 0.00 0.00 66 1012.9
20260901104522 73 169 0.0 2.0 0.00 0.00 0.00 65 1012.9
20260901103020 74 169 0.0 2.0 0.00 0.00 0.00 63 1012.7
20260901101524 73 169 0.0 2.0 0.00 0.00 0.00 64 1012.6
20260901100015 74 165 0.0 2.0 0.00 0.00 0.00 64 1012.4
20260901094513 74 165 0.0 2.0 0.00 0.00 0.00 63 1012.3
20260901093019 75 183 0.0 2.0 0.00 0.00 0.00 61 1012.2
20260901091511 75 183 0.0 2.0 0.00 0.00 0.00 61 1012.1
20260901090010 76 186 1.0 2.0 0.00 0.00 0.00 59 1011.9
20260901084519 76 204 0.0 2.0 0.00 0.00 0.00 57 1012.1
20260901083005 77 204 0.0 2.0 0.00 0.00 0.00 57 1011.9
20260901081504 77 209 0.0 2.0 0.00 0.00 0.00 57 1011.7
20260901080002 77 183 0.0 2.0 0.00 0.00 0.00 57 1011.9
20260901074605 77 183 0.0 2.0 0.00 0.00 0.00 57 1011.8
20260901073102 78 187 0.0 2.0 0.00 0.00 0.00 56 1012.0
20260901071555 78 194 0.0 4.0 0.00 0.00 0.00 56 1011.9
20260901070100 79 176 1.0 4.0 0.00 0.00 0.00 55 1011.6
20260901064551 79 191 1.0 4.0 0.00 0.00 0.00 55 1011.8
20260901063049 79 198 2.0 5.0 0.00 0.00 0.00 56 1012.0
20260901061549 79 199 0.0 4.0 0.00 0.00 0.00 56 1011.9
20260901060046 80 173 1.0 3.0 0.00 0.00 0.00 55 1011.8
20260901054543 80 183 2.0 4.0 0.00 0.00 0.00 54 1011.9